Starlink 6048

operational
NORAD ID: 56459 Int'l Des: 2023-064 Owner: SPXS Country: US Constellation: starlink
LEOCIRCULAR

关于 Starlink 6048

正在加载描述...

实时位置

正在加载3D地球...

即将过境

高度历史

Altitude vs Time

uPlot chart will show altitude changes over time

两行轨道根数

1 56459U 23064M 25257.53862960 -.00079844 00000-0 -65935-2 0 9998
2 56459 69.9991 228.4603 0004797 224.3782 135.6994 14.99284966128853
Epoch: Sep 14, 2025 • Age: 20 hours

当前状态

高度 591.1 km
速度 7.57 km/s
星下点 -65.69°S, 34.19°W
发射日期 May 10, 2023
运行时间 2.3 years
类型 internet

技术详情

分类 Payload
质量 305.00 kg
干质量 290.00 kg
总质量 305.00 kg
长度 0.20 m
直径 2.80 m
跨度 9.00 m
形状 Box + pan
制造商 SPXS
平台类型 Starlink
阶段状态 In Orbit
所有者/国家 SPXS/US

大型星座

Loading constellations...